Погода в Усолье

Россия / Самарская область     53°23′32″N   49°03′29″E
темп.,
°C
ветер,
м/с
пор.,
м/с
влажн.,
%
обл.,
%
осадки,
мм/ч
давл.,
гПа
погр.,
м
12 мая, ср
ср1201:00+14всв117986 0.0 102511
04:00+13св118062 0.0 102511
07:00+15в276975 0.0 1026175
10:00+19вюв5105195 0.0 1026622
13:00+18ююв4953100 0.0 1026305
16:00+20вюв5949100 0.0 1025527
19:00+18ююв226387 0.0 102522
22:00+16вюв346422 0.0 102556
13 мая, чт
чт1301:00+14в22665 0.0 102515
04:00+12всв22715 0.0 102516
07:00+14всв376423 0.0 1024183
10:00+18юв61054100 0.0 1024425
13:00+17в3873100 0.0 1024198
16:00+23юв6114393 0.0 10221415
19:00+21ююв5135174 0.0 1021358
22:00+17ююв3755100 0.0 1022103
14 мая, пт
пт1401:00+15юв33620 0.1 102227
04:00+14ююв48624 0.1 1022130
07:00+16ю410615 0.0 1023225
10:00+21ююв694598 0.0 1023484
13:00+25ю7103443 0.0 10221018
16:00+26ю6937100 0.0 10221161
19:00+22ю6124939 0.0 1022315
22:00+19ю5135025 0.0 1022218
15 мая, сб
сб1501:00+16ю411545 0.0 1021167
04:00+15ю485629 0.0 1022127
07:00+16ю49585 0.0 1022194
10:00+22ю68425 0.0 1021425
13:00+26ю69295 0.0 10211286
16:00+27ю68295 0.0 10201782
19:00+24ююв47485 0.0 1019132
22:00+19ю47510 0.0 1019102
16 мая, вс
вс1601:00+17ю37520 0.0 101998
04:00+16ю37584 0.0 101996
07:00+18ю410617 0.0 1019211
10:00+24ю69485 0.0 1018497
13:00+27ю610348 0.0 10182039
16:00+28юз6931100 0.0 10172384
19:00+24ююз3647100 0.0 101786
22:00+20зюз225072 0.0 101711